Location: Kott?ru
(16.6209°N, 80.6208°E)
Time: 13:34:19
(UTC+00:00)

Daily predictions for brighter satellites

Satellite Brightness Start Highest point End
(mag) Time Altitude Azimuth Time Altitude Azimuth Time Altitude Azimuth
IRS-1C Rocket 4.4 13:16:22 10° SSE 13:21:22 46° ENE 13:26:22 10° N
CZ-4 R/B 1.6 13:20:38 10° SSE 13:24:39 51° ENE 13:28:37 10° N
Meteor 2-21 Rocket 4.5 13:18:36 10° N 13:24:41 66° E 13:30:49 10° SSE
Meteor 2-15 4.5 13:19:30 10° S 13:25:26 60° E 13:31:22 10° NNE
Mugunghwa Rocket 4.0 13:19:21 10° WSW 13:25:39 88° NNW 13:32:10 10° ENE
Delta 202 3.7 13:21:26 10° WSW 13:27:45 73° SSE 13:32:59 10° E
IUS-13 SRM-1 2.7 13:27:34 10° SSW 13:29:00 17° SSE 13:30:45 10° E
Cosmos 2084 4.1 13:27:10 10° S 13:30:43 30° ESE 13:34:18 10° NE
Cosmos 1763 Rocket 3.5 13:26:06 10° NNW 13:31:14 85° ENE 13:36:25 10° SSE
Cosmos 1844 Rocket 2.6 13:26:22 10° SSW 13:31:54 79° ESE 13:37:28 10° NNE
CZ-2C R/B 3.2 13:26:37 10° N 13:32:03 68° WNW 13:37:36 10° SSW
Cosmos 1437 Rocket 4.0 13:30:20 10° SE 13:33:09 20° E 13:35:59 10° NE
DMSP B5D2-2 4.1 13:29:44 10° NNE 13:34:58 66° ESE 13:40:12 10° S
Cosmos 841 Rocket 3.9 13:36:33 10° N 13:41:22 40° ENE 13:46:09 10° SE
SL-16 R/B 4.0 13:36:48 10° NW 13:41:46 32° WSW 13:46:43 10° SSW
Cosmos 921 Rocket 3.9 13:39:54 10° NNE 13:43:28 27° ENE 13:46:04 15° SE
Star 37E S/N 40105 3.7 13:41:39 10° W 13:43:46 43° S 13:45:14 18° ESE
Cosmos 2266 Rocket 4.0 13:37:52 10° N 13:43:59 88° W 13:50:01 10° S
Cosmos 1842 Rocket 3.6 13:39:46 10° S 13:44:14 88° W 13:48:42 10° N
GPS 2-17 Rocket1 3.4 13:41:29 10° W 13:46:12 70° N 13:50:55 11° ENE
H-2A R/B 2.5 13:42:52 10° S 13:47:42 59° W 13:52:30 10° NNW
GEOS 3 Rocket 4.3 13:43:58 13° ESE 13:48:14 38° ENE 13:53:10 10° N
Geosat 4.5 13:44:06 12° SE 13:48:28 42° ENE 13:53:10 10° N
FALCON 9 DEB 3.8 13:46:26 10° NNW 13:49:39 38° NE 13:51:30 21° ESE
Cosmos 1943 3.5 13:44:28 10° N 13:49:52 46° ENE 13:54:33 14° SE
CSL-04 Rocket 4.1 13:45:45 10° SE 13:50:39 41° ENE 13:55:36 10° N
Cosmos 1174 3.9 13:48:36 10° N 13:51:25 32° ENE 13:52:33 23° ESE
Cosmos 1408 Rocket 4.0 13:49:00 10° NNE 13:53:09 40° E 13:56:35 14° SSE
USA 186 3.7 13:56:51 11° NE 13:56:51 11° NE 13:57:12 10° NE
Cosmos 1606 2.6 13:52:25 10° S 13:56:06 58° E 13:59:47 10° NNE
Cosmos 1503 Rocket 4.1 13:54:14 10° S 13:59:12 51° ESE 14:04:11 10° NNE
Cosmos 1844 4.1 13:55:20 10° SSW 14:01:03 67° WNW 14:06:44 10° N
GENESIS II 4.0 14:00:10 10° NNW 14:04:00 79° ENE 14:06:11 24° SSE
USA 229 DEB 4.0 13:57:39 10° NNW 14:05:22 88° ENE 14:12:31 13° SSE
USA 229 4.0 13:57:44 10° NNW 14:05:27 87° ENE 14:12:34 13° SSE
Cosmos 1242 Rocket 4.4 14:07:22 16° ENE 14:07:22 16° ENE 14:08:30 10° NE
NOSS 3-3 (A) 3.6 14:02:01 10° SSW 14:07:24 85° ESE 14:13:08 10° NNE
NOSS 3-3 (C) 3.6 14:02:06 10° SSW 14:07:31 85° ESE 14:13:16 10° NNE
SJ-6B 4.3 14:08:12 20° ENE 14:08:12 20° ENE 14:10:46 10° NNE
OAO 3 Rocket 3.0 14:04:06 10° WSW 14:08:44 87° NW 14:13:07 12° ENE
Ariane H10-3 4.1 14:06:39 10° WSW 14:10:46 39° SSE 14:18:15 22° ESE
BREEZE-M DEB (TANK) 3.8 14:08:51 10° WNW 14:12:18 56° SW 14:21:07 14° SSE
Lacrosse 5 rocket 3.0 14:08:21 10° NW 14:12:22 34° WSW 14:16:13 11° S
Cosmos 2221 4.4 14:08:53 10° SSW 14:12:42 32° W 14:16:33 10° NNW
ERS-2 3.3 14:10:28 10° N 14:13:54 43° WNW 14:17:20 10° SSW
SL-08 RB Rocket 4.0 14:11:03 10° S 14:15:37 66° W 14:20:08 10° NNW
S3M 4.0 14:14:26 10° S 14:20:41 60° E 14:26:56 10° NNE
Fermi 3.6 14:18:53 10° WNW 14:22:58 85° NNE 14:23:50 54° ESE
NOSS 3-1 (A) 4.5 14:15:50 10° NNW 14:24:24 76° WSW 14:32:08 16° SSE
Cosmos 540 Rocket 4.3 14:20:42 10° NNW 14:25:36 48° WSW 14:30:23 11° S
Cosmos 1743 Rocket 3.6 14:23:00 10° N 14:27:14 52° E 14:27:36 50° ESE
Cosmos 1570 Rocket 3.9 14:24:33 10° NNW 14:29:46 86° WSW 14:32:27 30° S
Cosmos 1354 Rocket 4.0 14:26:56 10° SSW 14:32:09 81° WNW 14:37:22 10° N
Okean-O 4.5 14:28:47 10° SSW 14:32:34 28° W 14:36:23 10° NW
Cosmos 1814 Rocket 4.0 14:29:12 10° NNW 14:34:20 78° WSW 14:36:43 32° S
Haruka 3.6 14:23:09 10° WNW 14:35:37 59° NNE 14:37:11 40° ENE
Tianhe-1 2.3 14:34:19 10° WSW 14:36:22 36° WSW 14:36:22 36° WSW
Cosmos 1500 Rocket 3.3 14:33:48 10° N 14:38:08 77° E 14:38:25 73° SE
SL-4 R/B 4.5 14:37:19 10° NNE 14:39:17 14° NE 14:39:17 14° NE
GPS 2-18 Rocket1 3.9 14:37:57 10° WNW 14:41:29 41° N 14:41:31 41° N
Helios 1A Rocket 3.9 14:46:58 34° SW 14:48:13 45° W 14:52:10 10° NNW
SL-08 ROCKET BODY 4.3 14:51:42 10° N 14:57:32 83° W 14:58:59 53° S
OBJECT-B 3.2 15:01:31 22° NW 15:01:31 22° NW 15:02:51 10° NNW
USA 267 3.2 15:00:20 58° SSE 15:01:47 85° SW 15:08:23 10° NW
Resurs 01 Rocket 3.9 15:09:34 15° NNE 15:09:34 15° NNE 15:10:28 10° NNE
Cosmos 2278 Rocket 2.7 15:12:24 48° NNE 15:12:24 48° NNE 15:16:23 10° NNE
ATLAS 5 CENTAUR R/B 3.9 15:43:52 10° N 15:47:09 30° NNE 15:47:09 30° NNE
Milstar 3 4.4 16:53:00 10° WNW 17:03:34 40° NNW 17:03:34 40° NNW
Cosmos 1980 Rocket 4.1 21:13:53 23° N 21:13:53 23° N 21:15:54 10° N
ADEOS Rocket 3.5 21:23:25 70° ENE 21:23:25 70° ENE 21:30:51 10° N
Cosmos 2227 Rocket 3.6 21:29:41 10° N 21:32:34 31° N 21:32:34 31° N
CZ-2C R/B 4.0 21:31:36 10° NE 21:36:09 31° E 21:36:22 31° ESE
CENTAUR R/B 3.5 21:36:43 32° ESE 21:36:43 32° ESE 21:41:37 10° NE
Cosmos 2297 Rocket 4.4 21:32:43 10° NNW 21:33:42 15° NNW 21:33:42 15° NNW
ARIANE 5 R/B 3.9 21:35:15 10° N 21:37:53 31° N 21:37:53 31° N
SL-16 R/B 2.9 21:42:25 49° E 21:42:25 49° E 21:47:43 10° NNE
Centaur D AC-25 4.0 21:44:28 26° ESE 21:44:28 26° ESE 21:45:57 10° ESE
Palapa B4 Rocket 4.5 21:51:52 57° S 21:52:05 57° SSE 21:58:01 10° E
SL-08 R/B 4.5 21:52:23 30° ESE 21:54:03 40° ENE 21:58:26 10° N
USA 234 3.6 21:53:51 10° NE 22:00:13 55° SE 22:02:00 43° S
Cosmos 407 Rocket 3.4 22:01:49 10° NNW 22:07:10 89° E 22:07:18 85° SSE
Cosmos 1346 Rocket 3.9 22:10:06 40° NNE 22:10:06 40° NNE 22:12:41 10° N
Cosmos 2322 Rocket 2.3 22:10:09 55° SSE 22:11:19 73° ESE 22:16:58 10° NNE
ALOS 3.5 22:08:27 10° NNE 22:12:47 38° E 22:15:03 23° SSE
Cosmos 2228 3.6 22:10:09 10° N 22:14:22 55° E 22:15:31 41° SE
BREEZE-M DEB (TANK) 4.0 22:13:48 26° NNW 22:16:13 82° NE 22:30:58 10° SE
Cosmos 1452 Rocket 4.0 22:17:37 43° NW 22:17:37 43° NW 22:21:53 10° N
NOSS 3-2 (C) 3.1 22:18:18 53° S 22:19:32 75° ESE 22:25:06 10° NNE
Cosmos 1331 Rocket 4.2 22:19:49 40° S 22:21:34 67° ESE 22:26:40 10° NNE
Atlas Centaur 2 2.9 22:21:28 38° WNW 22:23:55 55° NNW 22:29:58 10° NE
Aurora 2 Rocket 3.9 22:22:43 41° SSW 22:24:39 55° SSE 22:32:59 10° ENE
ATLAS 2A CENTAUR R/B 2.4 22:25:48 36° NW 22:26:44 42° N 22:35:39 10° ENE
Cosmos 1703 3.9 22:28:06 33° SSE 22:29:30 52° E 22:33:15 10° NNE
Cosmos 1891 Rocket 4.3 22:24:53 10° N 22:30:55 88° E 22:36:57 10° S
GPS 2-14 Rocket1 2.8 22:31:09 59° NNW 22:31:27 62° N 22:35:30 10° ENE
PAYLOAD A 4.0 22:27:07 10° N 22:31:35 48° WNW 22:31:35 48° WNW
Tsikada Rocket 4.2 22:26:16 12° S 22:32:10 75° E 22:38:33 10° N
Milstar 3 3.3 22:31:41 36° SW 22:33:04 40° SSW 22:41:42 10° SE
Cosmos 1954 Rocket 4.4 22:29:00 10° N 22:34:15 66° ENE 22:39:30 10° SSE
CZ-2C R/B 3.8 22:33:26 10° N 22:34:21 11° NNE 22:35:16 10° NE
Cosmos 2263 Rocket 4.2 22:30:04 10° N 22:34:54 29° ENE 22:39:45 10° SE
APEX 4.2 22:29:34 10° NNW 22:35:02 70° WSW 22:41:33 10° S
Cosmos 2360 Rocket 2.5 22:31:58 21° S 22:35:47 64° ESE 22:41:22 10° NNE
Cosmos 2237 4.2 22:33:02 29° SSW 22:36:03 84° ESE 22:41:46 10° NNE
GPS 2-15 Rocket1 3.5 22:34:44 39° WNW 22:36:12 57° N 22:40:46 10° ENE
Centaur D AC-29 0.7 22:37:17 64° WSW 22:37:33 69° SSW 22:43:05 10° ESE
Cosmos 1110 Rocket 3.9 22:38:37 40° SW 22:40:21 64° WNW 22:45:29 10° N
NOSS 3-2 (A) 4.1 22:43:12 27° WNW 22:43:59 28° WNW 22:48:46 10° N
METEOR-M 4.4 22:39:13 10° NNE 22:44:32 70° ESE 22:49:51 10° S
Intelsat 5-3 Rocket 3.5 22:41:30 25° W 22:45:48 58° NNW 22:49:36 10° ENE
Tianhe-1 3.8 22:43:52 10° NNW 22:46:15 20° NE 22:48:36 10° E
Meteor 2-10 Rocket 3.5 22:41:32 10° N 22:47:06 73° W 22:52:25 10° S
SEDSat Delta rocket 4.2 22:45:07 26° WNW 22:47:12 37° NNW 22:51:32 10° NE
Cosmos 1455 2.9 22:46:42 10° N 22:50:28 56° E 22:54:14 10° SSE
OAO 3 Rocket 3.1 22:47:28 23° WNW 22:50:28 72° SW 22:55:23 10° SE
Cosmos 1484 Rocket 2.7 22:46:43 10° NNE 22:50:35 82° E 22:53:09 20° S
USA 238 DEB 4.2 22:53:11 26° WSW 22:55:55 37° WNW 23:01:57 10° N
USA 238 4.2 22:53:16 26° WSW 22:56:01 38° WNW 23:02:04 10° N
CZ-2C R/B 4.3 22:55:19 10° NNW 22:58:12 21° WNW 22:58:12 21° WNW
CZ-3B R/B 3.6 22:56:14 10° NW 22:58:56 25° NNE 23:03:59 10° ENE
Cosmos 1464 Rocket 4.1 22:56:32 10° NNW 23:02:29 52° W 23:08:31 10° SSW
PSLV R/B 4.2 23:00:17 10° N 23:04:07 35° WNW 23:05:56 24° WSW
ATLAS CENTAUR R/B 3.2 23:02:01 14° SSW 23:05:23 63° ESE 23:14:53 10° NE
USA 32 4.0 23:00:13 10° N 23:05:23 62° W 23:10:33 10° S
Okean 1-7 Rocket 4.4 23:05:12 23° SW 23:07:04 32° W 23:11:08 10° NNW
Cosmos 2034 Rocket 4.0 23:04:53 10° N 23:11:07 67° W 23:17:19 10° S
CZ-2C R/B 4.0 23:10:33 10° NNW 23:14:02 18° WNW 23:15:45 16° W
SWIFT 2.3 23:15:11 18° W 23:18:15 82° NNW 23:22:31 10° ENE
Cosmos 2333 Rocket 2.6 23:14:33 10° S 23:20:14 67° ESE 23:25:57 10° NNE
Cosmos 389 Rocket 2.4 23:22:11 10° NNW 23:25:33 55° W 23:28:53 10° S
SL-24 R/B 3.9 23:22:36 10° S 23:26:05 43° W 23:29:37 10° NNW
SL-16 R/B 4.0 23:24:19 11° W 23:26:25 13° WNW 23:28:55 10° NW
CENTAUR R/B 3.7 23:23:55 12° W 23:27:06 19° WNW 23:31:18 10° NNW
Aureole 2 Rocket 2.6 23:25:54 10° NW 23:28:17 29° WSW 23:30:41 10° SSW
deb Centaur AC-2 4.2 23:24:01 14° WSW 23:28:19 75° NNW 23:32:44 10° ENE
Cosmos 1441 Rocket 3.8 23:27:07 10° SSW 23:30:43 38° W 23:34:23 10° NNW
Cosmos 2058 Rocket 3.6 23:26:50 10° NNW 23:31:02 40° W 23:35:14 10° SSW
Meteor 1-11 4.3 23:25:54 10° SSW 23:31:42 73° W 23:37:29 10° N
Meteor 2-1 Rocket 4.2 23:27:45 10° NNW 23:33:17 65° W 23:38:44 10° S
Cosmos 1825 Rocket 4.4 23:29:05 10° S 23:33:17 55° E 23:37:32 10° NNE
CZ-4B R/B 4.0 23:30:52 10° N 23:35:14 67° WNW 23:39:26 10° SSW
Cosmos 1184 Rocket 4.4 23:38:13 10° WSW 23:40:15 16° W 23:42:18 10° NW
ADEOS 3.6 23:35:58 10° N 23:41:07 65° WNW 23:46:16 10° SSW
USA 234 4.4 23:37:39 10° N 23:42:51 26° NW 23:48:04 10° W
Cosmos 2333 4.5 23:38:30 10° SSW 23:44:04 53° WNW 23:49:42 10° N
MOS 1 Rocket 3.6 23:38:55 10° S 23:44:17 85° WSW 23:49:26 10° NNW
Cosmos 1992 Rocket 4.2 23:39:44 10° S 23:44:55 80° ESE 23:50:06 10° NNE
SL-8 R/B 4.2 23:42:11 10° WSW 23:46:45 46° NW 23:51:19 10° NNE
